EW4885 Weather Reports


time (UTC)temp
C
wind
direction
speed
KPH
gust
KPH
rain 1hr
cm
rain 24hr
cm
rain mn
cm
humidity
%
barometer
mb
20260506174542 11 15 8.0 12.9 0.03 2.92 2.64 88 1010.2
20260506173048 11 351 14.5 22.5 0.00 2.90 2.62 84 1010.0
20260506171540 13 307 6.4 12.9 0.00 2.90 2.62 79 1009.7
20260506170055 14 348 3.2 8.0 0.00 2.90 2.62 76 1009.5
20260506164538 15 217 0.0 4.8 0.00 2.90 2.62 74 1009.3
20260506163039 15 182 4.8 9.7 0.00 2.90 2.62 72 1009.1
20260506161540 15 216 3.2 6.4 0.00 2.90 2.62 71 1009.2
20260506160040 16 171 4.8 11.3 0.00 2.90 2.62 69 1009.2
20260506154534 15 169 6.4 14.5 0.00 2.90 2.62 70 1009.1
20260506153029 15 153 3.2 11.3 0.00 2.90 2.62 74 1009.1
20260506151529 15 115 6.4 12.9 0.00 2.90 2.62 78 1009.2
20260506150027 15 151 8.0 16.1 0.00 2.90 2.62 76 1009.3
20260506144524 14 191 6.4 14.5 0.00 2.92 2.62 79 1009.3
20260506143030 14 144 9.7 17.7 0.00 2.92 2.62 81 1009.3
20260506141520 13 161 8.0 14.5 0.00 2.92 2.62 84 1009.6
20260506140017 13 160 4.8 14.5 0.00 2.92 2.62 87 1009.7
20260506134513 12 155 6.4 16.1 0.00 3.23 2.62 89 1009.8
20260506133012 12 144 8.0 19.3 0.00 3.23 2.62 89 1009.9
20260506131512 12 130 9.7 19.3 0.00 3.23 2.62 89 1010.0
20260506130014 12 197 8.0 19.3 0.00 3.23 2.62 91 1010.0
20260506124510 12 169 9.7 19.3 0.00 3.23 2.62 90 1009.9
20260506123010 12 146 9.7 16.1 0.00 3.23 2.62 91 1009.8
20260506121510 12 149 4.8 14.5 0.03 3.23 2.62 91 1009.9
20260506120008 12 199 8.0 16.1 0.03 3.23 2.62 92 1010.0
20260506114506 12 196 8.0 16.1 0.03 3.23 2.62 94 1010.0
20260506113007 11 180 8.0 17.7 0.03 3.20 2.59 95 1010.1
20260506111503 10 178 8.0 19.3 0.05 3.20 2.59 95 1010.2
20260506110002 11 159 8.0 20.9 0.13 3.20 2.59 96 1010.2
20260506104601 10 144 6.4 11.3 0.18 3.20 2.59 96 1010.2
20260506103105 10 162 4.8 14.5 0.23 3.17 2.59 96 1010.2
20260506101553 10 184 6.4 16.1 0.33 3.15 2.57 96 1010.1
20260506100051 10 146 4.8 11.3 0.33 3.07 2.49 95 1010.0
20260506094550 10 176 6.4 14.5 0.36 3.02 2.41 95 1009.9
20260506093047 10 167 8.0 12.9 0.36 2.92 2.34 96 1009.8
20260506091547 10 180 6.4 14.5 0.33 2.82 2.21 95 1009.6
20260506090050 10 181 6.4 16.1 0.33 2.74 2.13 95 1009.3
20260506084559 10 163 6.4 11.3 0.33 2.69 2.06 95 1009.2
20260506083043 10 175 4.8 9.7 0.36 2.62 1.98 95 1008.9
20260506081542 10 200 3.2 9.7 0.38 2.54 1.91 95 1008.8
20260506073035 10 219 3.2 11.3 0.46 2.26 1.63 96 1008.3
20260506071535 10 197 4.8 11.3 0.48 2.16 1.52 96 1008.1
20260506061545 10 213 8.0 16.1 0.48 1.70 1.04 95 1007.2
20260506044524 10 226 0.0 4.8 0.38 1.09 0.43 95 1006.6
20260506043035 10 192 0.0 4.8 0.33 1.02 0.33 95 1006.7
20260506041521 10 181 3.2 6.4 0.23 0.91 0.23 94 1006.7
20260506040019 10 173 4.8 6.4 0.10 0.79 0.13 94 1006.9
20260506034517 10 210 1.6 4.8 0.03 0.76 0.05 94 1006.9
20260506033018 10 202 1.6 4.8 0.00 0.71 0.03 94 1006.8
20260506031515 10 200 3.2 6.4 0.00 0.71 0.03 94 1006.8
20260506030019 10 175 1.6 4.8 0.00 0.71 0.03 94 1006.8
20260506024532 10 158 0.0 4.8 0.00 0.94 0.03 94 1007.1
20260506023014 10 155 1.6 4.8 0.00 0.94 0.03 94 1007.3
20260506021512 10 165 0.0 0.0 0.00 0.94 0.03 94 1007.2
20260506020011 11 165 0.0 0.0 0.00 0.94 0.03 94 1007.2
20260506014510 11 165 0.0 0.0 0.00 1.02 0.03 94 1007.2
20260506013006 11 165 1.6 6.4 0.00 1.02 0.03 94 1007.5
20260506011506 11 174 3.2 8.0 0.03 1.02 0.03 94 1007.8
20260506010006 11 194 3.2 9.7 0.03 1.19 0.03 94 1007.9
20260506004505 11 188 1.6 9.7 0.03 1.19 0.03 94 1008.1
20260506003100 11 194 3.2 8.0 0.03 1.19 0.03 93 1008.2
20260506001558 11 195 3.2 11.3 0.00 1.17 0.00 93 1008.4
20260506000055 11 213 3.2 9.7 0.00 1.17 0.00 93 1008.7
20260505234606 11 222 4.8 14.5 0.00 1.42 0.00 93 1008.8
20260505233052 11 184 4.8 11.3 0.00 1.42 0.00 92 1008.6
20260505231604 11 148 3.2 11.3 0.00 1.42 0.00 92 1008.6
20260505230051 11 150 4.8 12.9 0.00 1.42 0.00 92 1008.8
20260505224545 11 181 6.4 14.5 0.03 1.42 0.00 93 1009.1
20260505223040 12 147 3.2 9.7 0.10 1.42 0.00 94 1009.4
20260505221539 12 178 0.0 4.8 0.13 1.42 0.00 93 1009.7
20260505220038 12 258 0.0 4.8 0.13 1.42 0.00 93 1010.0
20260505214558 12 232 4.8 14.5 0.10 1.42 1.42 92 1009.9
20260505213033 13 220 9.7 20.9 0.03 1.35 1.35 88 1009.8
20260505211535 13 208 12.9 22.5 0.00 1.32 1.32 88 1009.4
20260505210036 13 190 8.0 14.5 0.00 1.32 1.32 91 1009.4
20260505204534 12 157 3.2 8.0 0.00 1.32 1.32 91 1009.4
20260505203030 12 159 4.8 9.7 0.00 1.32 1.32 92 1009.4
20260505201530 12 151 4.8 8.0 0.03 1.32 1.32 93 1009.1
20260505200041 12 161 1.6 6.4 0.05 1.32 1.32 92 1008.9
20260505194529 13 123 0.0 4.8 0.05 1.32 1.32 92 1008.8
20260505193023 13 167 0.0 0.0 0.10 1.32 1.32 92 1008.6
20260505191522 13 167 0.0 3.2 0.08 1.30 1.30 91 1008.5
20260505190047 13 167 1.6 3.2 0.08 1.27 1.27 89 1008.2
20260505184546 13 167 0.0 0.0 0.08 1.27 1.27 87 1008.0
20260505183055 14 167 0.0 0.0 0.03 1.22 1.22 85 1007.8
20260505181549 15 167 0.0 6.4 0.05 1.22 1.22 82 1007.8
20260505180050 15 115 1.6 6.4 0.05 1.19 1.19 82 1007.7